Temperature
21 20 19 19 19 19 21 22 23 23 22 23 23 22 22 21 21 21 21 21 21 20 20 20 20 20 20 19 19 19 19 19 19 19 19 19 19 19 19 19 19 19 19 19 19 19 19 19 19
20 20 19 19 19 20 21 22 23 23 23 23 23 22 21 21 21 21 21 21 21 20 20 20 20 20 20 19 19 19 19 19 19 19 19 19 19 19 19 19 19 19 19 19 19 19 19 19 19
20 20 20 19 20 21 22 23 23 23 24 23 23 22 21 21 21 21 21 21 20 20 20 20 20 20 20 20 20 20 19 19 20 19 19 19 19 19 19 19 19 19 19 19 19 19 19 19 19
21 20 20 20 22 22 23 23 23 23 24 23 23 22 21 21 21 21 21 21 20 20 20 20 20 20 20 20 20 20 20 20 20 19 19 19 19 19 19 19 19 19 19 19 19 19 19 19 19
21 21 20 21 22 23 23 24 24 23 23 23 22 21 21 21 21 21 21 21 20 20 20 20 20 20 20 20 20 20 20 20 20 19 19 19 19 19 19 19 19 19 19 19 19 19 19 19 19
21 20 20 21 23 24 24 24 24 23 23 23 22 21 21 21 21 21 21 20 20 20 20 20 20 20 20 20 20 20 20 20 19 19 19 19 19 19 19 19 19 19 19 19 19 19 19 19 19
21 20 21 22 22 23 24 24 24 23 23 23 22 21 21 21 21 21 21 20 20 20 20 20 20 20 19 20 20 19 19 19 19 19 19 19 19 19 19 19 19 19 19 19 19 19 19 18 18
22 20 22 22 23 23 24 24 24 23 23 23 23 21 21 21 21 21 21 20 20 20 20 20 20 20 19 19 19 19 19 19 19 19 19 19 19 19 19 19 19 19 19 19 19 19 18 18 18
22 21 21 22 23 23 24 24 24 24 23 23 22 22 22 21 21 21 21 21 20 20 20 20 20 20 20 19 19 19 19 19 19 19 19 19 19 19 19 19 19 19 19 19 18 18 18 18 18
22 21 23 24 23 23 24 24 24 23 23 22 22 22 22 21 21 21 21 21 20 20 20 20 20 20 20 19 19 19 19 19 19 19 19 19 19 19 19 19 18 18 18 18 18 18 18 18 18
22 22 23 24 24 24 24 24 24 23 22 22 22 22 21 21 21 21 21 21 20 20 20 20 20 20 20 19 19 19 19 19 19 19 19 19 19 19 19 19 18 18 18 18 18 18 18 18 18
23 23 24 25 25 25 24 24 23 23 23 24 23 22 22 21 21 21 21 21 20 20 20 20 20 20 19 19 19 19 19 19 19 19 19 19 19 19 19 19 18 18 18 18 18 18 18 18 18
24 24 25 25 25 25 24 24 23 23 24 23 23 22 22 21 21 21 21 20 20 20 20 20 20 20 20 19 19 19 19 19 19 19 19 19 19 19 19 18 18 18 18 18 18 18 18 18 18
25 25 24 25 25 25 24 23 23 23 23 23 22 22 22 21 21 21 21 21 20 20 20 20 20 20 20 19 19 19 19 19 19 19 19 19 19 19 19 18 18 18 18 18 18 18 18 18 18
25 24 24 24 24 24 24 23 23 23 23 22 22 21 21 21 21 21 21 21 21 20 20 20 20 20 20 19 19 19 19 19 19 19 19 19 18 18 18 18 18 18 18 18 18 18 18 18 18
24 24 23 24 24 24 24 23 23 23 22 22 21 21 21 21 21 21 21 21 21 21 20 20 20 20 20 19 19 19 19 19 19 19 19 19 18 18 18 18 18 18 18 18 18 18 18 18 18
23 23 23 24 24 24 23 22 22 22 22 21 21 21 21 21 21 21 21 21 21 21 21 20 20 20 20 20 19 19 19 19 19 18 18 18 18 18 18 18 18 18 18 18 18 18 18 17 17
24 23 24 23 24 23 22 22 22 22 22 21 21 21 21 21 21 21 21 21 21 21 21 20 20 20 20 20 19 19 19 19 19 18 18 18 18 18 18 18 18 18 18 18 18 18 18 17 17
24 24 23 24 24 23 22 22 21 22 21 21 21 21 21 21 21 21 21 21 21 21 20 20 20 20 20 20 19 19 19 19 18 18 18 18 18 18 18 18 18 18 18 18 18 17 17 17 17
24 23 23 23 24 23 22 22 22 21 21 21 21 21 21 21 21 21 21 21 21 21 20 20 20 20 20 20 19 19 19 19 18 18 18 18 18 18 18 18 18 18 18 18 17 17 17 17 17
24 23 24 23 23 22 22 22 21 21 21 22 22 21 21 21 21 21 21 21 21 21 20 20 20 20 20 20 19 19 19 19 18 18 18 18 18 18 18 18 18 18 18 18 18 18 18 17 17
24 25 24 24 22 21 22 21 21 21 20 21 21 21 21 21 22 22 22 21 21 21 21 20 20 20 20 19 19 19 19 19 19 18 18 18 18 18 18 18 18 18 18 18 18 17 17 17 17
24 24 24 23 22 21 21 21 21 20 20 20 20 21 21 21 22 22 22 22 21 21 21 20 20 20 20 19 19 19 19 19 18 18 18 18 18 18 18 18 18 18 18 18 17 17 17 17 17
24 23 22 20 20 21 21 21 21 20 21 21 21 21 22 22 22 22 22 22 21 21 21 20 20 20 20 19 19 19 19 19 18 18 18 18 18 18 18 17 17 17 17 17 17 17 17 17 17
23 22 21 22 20 21 20 20 20 21 21 21 21 21 22 22 22 22 22 22 21 21 21 20 20 20 19 19 19 19 18 18 18 18 18 18 18 17 17 17 17 17 17 17 17 17 17 17 17
23 22 22 22 21 20 20 20 21 22 22 22 22 22 22 22 22 22 22 22 22 21 21 20 20 20 19 19 19 18 18 18 18 18 17 17 17 17 17 17 17 17 17 17 17 17 17 17 17
23 21 21 19 20 20 20 21 21 21 21 21 21 21 21 21 22 22 22 22 21 21 21 20 20 20 19 19 19 18 18 18 18 17 17 17 17 17 17 17 16 16 17 16 16 16 16 16 16
23 20 18 19 20 21 22 21 21 21 21 20 20 20 21 21 21 21 21 21 21 21 21 20 20 20 19 19 18 18 18 17 17 17 17 17 17 16 16 16 16 16 16 16 16 16 16 16 16
22 21 18 17 19 20 21 21 22 21 21 20 20 21 21 21 21 22 22 21 21 21 21 20 20 19 19 19 18 18 18 17 17 17 16 16 16 16 16 16 16 16 16 16 16 16 16 16 16
23 21 19 21 20 18 19 21 22 21 20 20 20 21 21 22 22 22 21 21 21 21 20 20 20 19 19 19 18 18 17 17 17 16 16 16 16 16 16 16 16 16 16 16 15 15 15 16 16
Wind_Speed
8 7 3 1 2 4 3 4 1 2 3 2 4 5 4 3 1 1 2 1 2 1 0 1 2 2 4 6 5 5 4 4 4 4 6 6 6 6 6 8 9 9 10 10 10 11 11 12 12
6 5 2 1 4 3 4 3 2 2 3 3 5 5 4 3 2 2 1 1 3 2 1 1 2 3 4 5 5 4 4 4 4 4 5 6 6 6 6 7 8 8 8 9 9 10 11 11 12
5 3 1 3 2 1 1 1 3 3 2 2 3 4 3 2 1 1 1 2 3 2 2 1 2 3 4 4 4 4 4 4 4 5 6 6 6 6 6 6 7 7 8 8 8 9 10 11 11
3 1 2 3 2 1 2 1 2 3 3 4 3 4 3 3 1 2 3 4 4 2 2 1 2 3 4 4 4 5 5 5 5 6 5 6 6 5 6 6 6 6 7 7 7 8 9 10 11
1 2 4 3 3 2 0 1 1 2 2 3 4 3 3 4 3 5 4 4 3 1 1 1 2 3 4 4 4 5 6 6 6 5 5 5 5 5 5 5 5 5 5 6 7 7 8 10 11
2 3 4 3 4 3 2 1 3 4 3 2 3 3 2 2 3 3 3 3 2 1 1 1 1 2 3 4 5 5 5 6 6 5 4 4 4 4 5 5 5 5 4 5 6 7 8 9 10
2 3 1 0 2 2 1 2 2 3 3 2 3 3 1 1 1 3 3 3 3 2 2 2 2 1 3 4 4 5 5 6 6 5 5 4 4 4 5 5 5 5 4 4 5 7 9 10 10
2 2 2 1 0 1 0 2 1 3 2 3 3 4 2 2 3 5 5 5 4 3 2 2 2 2 2 2 4 4 5 5 5 5 5 6 5 5 6 5 5 5 5 5 6 8 9 10 10
2 3 1 2 2 2 1 1 1 2 4 3 2 3 3 7 6 6 5 4 3 3 2 2 2 2 2 2 3 3 4 5 5 5 6 6 5 5 4 5 5 5 5 5 7 8 9 9 9
3 2 3 3 3 2 0 1 1 3 4 3 4 5 7 8 6 5 4 3 2 2 2 2 2 2 2 2 2 3 3 4 5 5 5 6 5 5 5 6 6 5 6 6 8 8 8 7 6
3 3 2 1 2 3 2 0 2 5 1 3 6 7 8 7 5 4 3 2 2 2 2 3 2 3 3 2 3 3 3 4 5 5 5 5 5 4 4 3 4 4 6 5 6 6 6 6 5
2 3 2 1 1 2 2 1 2 2 3 4 7 9 8 7 5 4 3 3 3 4 3 3 3 3 3 3 3 3 3 3 3 4 4 4 3 4 4 4 4 4 4 5 5 5 6 6 6
1 1 1 2 3 3 4 2 1 1 3 8 9 9 7 6 4 3 3 3 3 3 3 3 4 3 3 3 3 4 3 3 3 3 4 4 3 3 4 4 4 4 5 5 5 5 6 5 5
1 1 2 2 3 2 4 2 2 1 6 9 9 7 6 5 4 3 3 3 2 2 2 3 4 3 3 3 2 3 3 2 3 3 4 4 3 3 4 4 4 4 5 5 5 5 5 4 4
2 3 4 1 1 1 4 3 1 2 7 8 7 6 5 4 4 3 3 3 2 2 2 3 3 3 3 3 2 2 2 3 3 3 3 4 4 3 4 4 4 4 4 5 5 5 4 4 4
3 4 2 2 1 1 4 2 3 2 7 7 6 6 5 3 3 2 3 3 2 3 3 2 3 4 3 3 3 3 3 3 3 2 3 4 4 4 4 4 3 3 4 4 4 4 4 4 4
4 1 2 3 0 2 3 3 3 2 6 6 5 5 5 4 2 2 3 3 3 3 4 3 2 3 3 3 3 4 4 3 2 3 2 3 3 4 4 3 3 4 4 4 4 4 3 3 3
3 1 2 3 2 2 1 2 2 2 5 6 5 5 5 5 4 3 3 3 3 3 3 3 3 3 3 3 4 4 4 3 3 3 3 3 3 4 4 4 3 4 4 4 4 4 3 3 2
3 2 3 4 2 2 2 3 3 3 4 4 5 6 6 5 3 3 3 3 3 3 3 3 3 3 3 2 2 2 2 2 3 3 4 3 3 4 4 4 3 3 3 3 3 3 3 2 2
2 2 3 2 1 2 1 2 3 3 5 6 7 7 7 4 3 3 3 3 3 3 3 3 3 3 2 2 2 2 2 2 2 2 3 4 4 4 3 3 3 3 3 3 3 2 2 1 1
2 5 5 3 2 3 2 4 2 3 3 3 4 6 6 8 7 5 4 4 4 4 4 4 3 3 3 3 3 3 3 3 3 3 3 3 3 3 3 3 3 3 3 2 2 2 2 1 1
4 5 5 3 2 2 2 3 6 3 3 4 4 5 7 7 7 6 6 5 5 4 4 3 3 3 3 4 4 4 3 2 1 1 1 3 4 3 3 3 3 3 2 2 1 1 1 2 1
5 2 3 2 3 1 2 1 6 1 4 6 6 7 8 8 8 8 7 6 5 5 4 4 3 3 3 4 4 4 3 2 1 2 3 3 3 3 3 3 3 2 2 1 1 1 1 1 1
4 7 7 6 4 1 2 2 6 4 6 5 6 7 8 8 8 7 5 5 4 5 5 4 4 3 3 4 4 4 4 3 3 2 2 3 2 3 3 3 2 2 2 1 1 1 1 1 1
5 6 4 4 3 4 2 2 8 7 6 6 7 7 7 7 8 8 7 6 6 6 5 5 5 3 3 3 3 3 4 4 3 2 1 1 1 2 2 2 2 2 1 1 1 1 1 1 1
4 8 7 4 4 4 2 4 7 5 3 3 4 5 6 7 7 8 8 7 7 6 5 5 5 4 3 4 3 3 3 2 2 1 1 1 0 0 1 2 2 2 2 1 1 1 1 1 1
6 4 6 7 3 1 5 6 7 2 1 1 3 4 6 7 8 8 8 7 6 6 6 6 6 4 3 3 3 3 2 2 2 2 1 1 0 1 2 2 2 2 2 2 2 2 1 1 1
5 8 6 6 5 2 5 4 4 5 5 3 3 4 5 6 7 8 8 8 7 6 5 5 6 5 3 3 3 3 2 2 2 2 1 1 1 1 2 2 2 1 2 2 2 2 1 2 1
4 5 6 5 5 6 3 6 6 8 7 7 7 5 5 7 7 7 7 7 7 6 6 5 5 4 3 3 3 3 2 2 2 2 1 1 1 1 1 1 1 1 1 2 2 2 2 2 1
4 6 7 5 3 4 4 7 5 5 5 5 5 4 4 5 6 6 6 7 7 6 5 5 5 4 4 3 3 3 2 2 2 1 1 1 1 1 1 1 1 1 1 1 1 1 1 1 1
Wind_Direction
154 145 142 138 47 41 354 329 0 26 21 36 66 82 88 66 83 201 307 143 122 110 150 185 123 123 137 152 153 149 144 141 139 136 135 137 139 144 153 155 157 162 166 169 170 172 174 173 173
147 156 171 65 65 39 333 330 43 63 141 123 68 66 60 41 37 88 6 156 116 112 93 138 111 115 129 141 148 147 143 137 135 136 139 138 134 140 150 153 156 160 164 166 169 172 173 173 175
167 195 98 59 68 144 280 315 105 90 90 65 59 53 63 41 52 142 219 132 99 90 92 120 105 101 120 136 139 137 136 127 122 128 139 140 133 136 144 148 155 159 162 166 168 172 174 175 177
167 113 45 55 27 277 202 235 135 109 41 38 72 50 33 23 127 154 130 115 101 79 80 113 116 111 121 123 127 126 122 116 112 116 124 133 130 129 134 142 153 160 163 167 171 175 176 173 173
92 73 46 25 343 335 346 320 68 88 64 52 73 67 10 354 87 111 116 116 112 78 64 130 143 125 118 112 113 114 112 109 109 109 109 117 127 133 136 137 144 150 161 170 170 172 172 170 169
54 63 60 2 345 3 3 53 70 75 84 77 74 72 6 7 84 106 111 109 106 97 25 29 128 120 113 109 107 106 107 106 105 104 103 105 118 135 136 141 142 142 149 155 160 159 159 160 160
89 74 93 271 341 356 349 40 73 92 83 84 109 88 10 356 76 95 85 74 66 54 45 14 2 46 101 109 106 106 106 106 104 100 91 80 91 120 129 137 140 137 133 140 144 143 146 145 147
142 86 34 350 5 296 250 37 63 104 96 101 102 127 193 207 98 80 70 61 60 55 47 25 9 20 49 80 99 102 99 99 97 91 80 73 85 106 113 118 131 124 120 125 126 128 132 138 138
129 68 330 236 199 242 165 53 29 60 90 68 66 128 142 122 106 85 67 56 57 60 41 25 28 41 52 56 69 70 79 75 73 71 67 59 60 76 92 94 103 109 106 113 119 119 122 122 125
116 130 238 220 191 188 113 76 128 78 76 57 61 73 103 111 113 107 97 93 83 58 40 42 55 55 56 63 58 46 50 52 49 48 52 53 55 63 68 75 82 80 82 89 104 112 110 107 108
161 199 245 281 202 149 135 57 71 119 126 187 157 141 127 116 111 112 105 93 93 68 55 60 73 67 63 53 58 51 52 51 46 42 50 54 48 46 46 49 57 58 65 73 91 94 95 102 104
179 249 210 262 118 126 152 138 90 131 205 159 148 140 134 131 134 136 127 102 84 76 62 61 73 73 63 59 55 63 61 53 44 35 45 58 52 47 44 48 43 51 65 74 84 89 89 92 93
208 292 64 103 85 102 95 79 107 25 109 115 122 124 134 140 139 129 119 100 89 83 73 77 81 77 69 65 58 70 64 59 51 40 45 64 66 55 52 52 53 55 65 76 82 86 87 88 87
236 39 27 59 83 96 111 69 84 217 123 122 129 136 144 145 142 122 109 108 107 102 91 86 86 86 81 76 72 70 66 58 56 49 51 68 76 71 66 61 57 58 66 77 86 88 87 83 85
64 44 23 46 85 128 98 33 336 180 125 131 141 142 135 137 140 147 155 147 139 114 93 94 103 90 88 81 71 76 69 69 58 45 54 74 84 81 79 74 66 65 75 80 84 81 83 84 84
44 44 1 305 78 90 105 250 280 148 136 145 153 153 145 146 149 156 146 136 129 112 98 94 106 102 97 88 77 76 73 72 59 53 59 76 87 90 84 79 74 76 81 81 82 78 79 77 79
36 22 286 305 25 101 119 238 262 148 150 164 167 163 159 158 163 177 158 142 139 128 116 107 94 103 103 92 79 72 69 65 58 56 58 72 83 92 91 83 80 81 78 74 82 77 86 90 81
258 245 260 250 235 119 148 251 250 179 167 176 176 173 172 179 197 187 164 143 129 113 110 110 99 91 96 90 78 67 58 48 46 46 50 69 79 90 91 83 76 81 81 72 75 79 75 88 87
192 198 250 254 202 145 199 244 245 202 184 191 188 184 185 194 189 161 156 143 122 110 113 119 115 103 104 101 97 87 66 47 45 44 50 64 74 86 93 93 86 85 91 92 91 93 81 67 81
163 198 260 300 93 130 180 279 251 207 204 201 191 192 189 179 171 175 172 157 152 148 145 141 139 130 126 119 115 114 107 78 67 46 46 53 70 84 99 102 104 102 101 90 88 93 95 62 64
225 200 218 221 24 43 56 332 279 245 226 221 198 192 187 187 189 189 183 179 163 163 164 162 156 142 124 112 98 86 65 52 48 42 33 32 59 70 78 86 93 101 114 119 107 108 123 126 48
247 228 196 170 112 321 68 298 285 248 249 229 210 195 194 194 192 190 185 181 178 175 155 146 146 139 128 123 122 123 116 105 55 51 40 34 46 57 74 84 89 94 105 112 121 115 138 143 152
213 125 120 121 128 48 17 172 287 292 253 245 221 207 200 195 194 193 189 185 171 155 144 143 136 127 126 126 133 127 114 108 80 66 59 42 34 43 57 77 90 86 89 105 104 100 119 149 172
131 75 61 50 72 8 260 186 280 243 224 234 218 207 198 193 193 188 177 158 149 141 141 142 139 131 124 125 129 130 128 118 97 71 61 42 27 26 33 58 65 68 77 75 99 112 120 135 174
94 91 41 5 9 258 261 206 252 254 232 216 212 209 199 187 182 176 172 168 161 154 154 151 150 148 140 137 139 141 141 137 138 137 118 83 40 23 13 38 51 52 54 52 59 100 115 142 163
166 142 157 196 223 275 311 242 259 273 262 216 195 190 181 181 178 179 179 173 167 160 155 157 160 159 156 152 149 140 141 140 139 136 140 149 137 14 17 49 55 50 51 49 56 55 37 82 105
140 160 156 131 134 322 290 289 307 336 357 122 155 160 178 183 175 175 172 167 167 165 167 167 157 151 157 157 143 133 138 143 140 128 117 111 66 55 61 60 51 37 40 40 50 50 32 61 82
127 140 105 120 146 232 293 286 261 266 250 218 190 194 197 182 171 169 168 168 171 172 164 157 153 153 145 143 151 149 146 154 151 131 115 95 54 50 73 71 67 54 41 51 56 43 39 69 62
104 99 106 115 147 157 231 269 232 225 218 208 211 204 193 179 175 173 167 167 165 155 153 151 148 140 139 146 133 112 100 100 110 113 125 135 122 118 108 103 83 56 43 46 53 34 39 57 50
151 156 146 150 197 170 182 261 286 232 211 190 199 192 175 169 162 162 160 158 160 160 158 160 160 154 154 147 129 119 108 95 92 119 173 152 129 108 117 94 74 44 31 37 57 31 31 50 67
Height
1488 1488 1489 1490 1492 1499 1499 1491 1484 1484 1483 1482 1481 1481 1483 1485 1488 1492 1486 1483 1482 1481 1479 1477 1474 1471 1470 1472 1475 1477 1478 1479 1479 1479 1480 1480 1481 1481 1482 1483 1484 1485 1487 1489 1490 1491 1493 1495 1498
1489 1489 1491 1492 1498 1509 1502 1489 1486 1484 1483 1483 1482 1483 1484 1485 1486 1486 1485 1484 1483 1482 1481 1479 1476 1473 1473 1474 1476 1478 1478 1479 1478 1478 1479 1480 1480 1481 1482 1483 1484 1485 1486 1487 1488 1490 1492 1494 1497
1489 1490 1492 1493 1499 1506 1499 1488 1485 1484 1484 1484 1484 1485 1486 1487 1487 1487 1486 1486 1485 1484 1483 1481 1479 1477 1477 1477 1478 1478 1479 1479 1478 1477 1478 1479 1480 1481 1482 1482 1484 1485 1486 1487 1487 1489 1490 1493 1495
1490 1492 1493 1497 1499 1494 1491 1487 1485 1485 1485 1485 1485 1487 1488 1489 1489 1488 1487 1487 1486 1485 1484 1483 1482 1481 1480 1480 1480 1480 1480 1480 1479 1478 1478 1479 1480 1482 1483 1483 1484 1485 1485 1486 1486 1487 1489 1491 1494
1491 1492 1497 1502 1498 1491 1487 1486 1486 1486 1486 1487 1487 1489 1490 1490 1490 1489 1488 1488 1487 1486 1486 1485 1484 1483 1483 1482 1482 1481 1482 1482 1482 1481 1480 1480 1482 1482 1483 1484 1484 1485 1485 1485 1486 1486 1487 1490 1494
1492 1493 1504 1508 1499 1490 1488 1487 1487 1487 1488 1488 1489 1490 1492 1492 1491 1490 1489 1489 1488 1488 1487 1487 1486 1485 1485 1485 1484 1484 1484 1484 1484 1484 1483 1482 1482 1482 1483 1484 1485 1485 1485 1485 1485 1486 1488 1491 1494
1494 1497 1503 1502 1499 1494 1489 1488 1488 1489 1489 1490 1490 1491 1492 1492 1492 1491 1490 1490 1489 1489 1489 1488 1488 1487 1487 1487 1487 1487 1487 1487 1486 1486 1484 1482 1479 1480 1482 1484 1486 1486 1485 1485 1486 1486 1489 1492 1495
1494 1498 1501 1501 1500 1496 1490 1489 1490 1490 1490 1491 1491 1492 1493 1493 1493 1492 1491 1491 1491 1491 1490 1490 1490 1490 1490 1490 1490 1490 1489 1489 1489 1488 1486 1483 1479 1480 1483 1486 1487 1487 1487 1487 1487 1488 1490 1493 1496
1494 1501 1505 1500 1498 1494 1490 1490 1491 1491 1491 1492 1492 1492 1493 1494 1494 1493 1492 1492 1492 1492 1492 1492 1492 1492 1492 1492 1492 1492 1492 1492 1491 1491 1490 1487 1484 1484 1487 1488 1489 1488 1488 1487 1488 1490 1492 1495 1498
1494 1503 1498 1492 1491 1491 1490 1491 1491 1492 1492 1493 1493 1493 1494 1494 1494 1494 1493 1494 1494 1494 1494 1494 1494 1494 1495 1495 1495 1495 1494 1494 1494 1494 1493 1492 1491 1491 1491 1491 1491 1490 1488 1487 1488 1491 1494 1497 1500
1493 1496 1491 1490 1489 1490 1491 1491 1491 1492 1494 1493 1493 1494 1495 1495 1496 1495 1496 1496 1496 1496 1496 1496 1496 1497 1497 1498 1498 1498 1498 1498 1498 1497 1497 1496 1495 1495 1495 1494 1493 1492 1489 1488 1489 1493 1496 1499 1501
1492 1490 1490 1490 1489 1490 1491 1492 1492 1492 1493 1493 1494 1495 1496 1496 1496 1497 1497 1497 1498 1498 1498 1498 1499 1499 1499 1500 1500 1501 1500 1500 1500 1500 1500 1500 1499 1498 1498 1498 1497 1494 1492 1492 1493 1496 1499 1501 1503
1492 1490 1489 1490 1490 1490 1491 1492 1493 1493 1493 1494 1495 1496 1497 1498 1498 1498 1499 1499 1500 1500 1500 1501 1501 1501 1502 1502 1502 1503 1503 1503 1503 1503 1503 1503 1502 1501 1501 1500 1500 1499 1498 1498 1499 1501 1503 1504 1506
1490 1490 1490 1490 1490 1491 1492 1493 1494 1494 1494 1495 1497 1497 1498 1499 1500 1500 1500 1501 1501 1502 1502 1503 1503 1504 1504 1504 1504 1504 1505 1505 1505 1505 1505 1505 1504 1504 1504 1503 1503 1503 1503 1503 1503 1505 1506 1507 1509
1490 1492 1492 1491 1491 1492 1493 1496 1495 1494 1495 1496 1498 1499 1500 1500 1501 1501 1502 1503 1503 1504 1505 1505 1505 1505 1506 1506 1506 1507 1507 1507 1507 1507 1507 1507 1507 1507 1506 1506 1506 1506 1506 1506 1507 1508 1509 1510 1511
1492 1497 1502 1495 1492 1493 1498 1505 1496 1495 1496 1497 1498 1499 1500 1501 1502 1503 1504 1504 1505 1506 1506 1507 1507 1507 1507 1507 1508 1508 1509 1509 1509 1509 1509 1509 1509 1509 1508 1508 1508 1509 1509 1509 1510 1510 1511 1512 1512
1501 1507 1505 1499 1493 1493 1497 1503 1496 1495 1496 1497 1499 1500 1501 1502 1502 1503 1504 1505 1506 1507 1507 1508 1508 1508 1508 1508 1509 1510 1510 1510 1510 1511 1511 1511 1511 1511 1511 1510 1511 1511 1511 1511 1512 1512 1513 1513 1514
1507 1507 1505 1502 1495 1495 1499 1500 1495 1495 1496 1497 1499 1500 1501 1501 1502 1504 1505 1506 1507 1508 1508 1509 1509 1509 1510 1510 1510 1511 1511 1512 1512 1512 1512 1512 1512 1512 1512 1512 1512 1513 1513 1513 1514 1514 1514 1515 1516
1497 1502 1504 1499 1493 1497 1500 1500 1496 1495 1496 1497 1498 1499 1500 1501 1503 1504 1505 1506 1507 1508 1509 1509 1510 1510 1510 1511 1511 1512 1512 1513 1513 1513 1514 1514 1514 1513 1513 1513 1514 1514 1514 1515 1515 1515 1516 1516 1517
1496 1502 1503 1497 1493 1496 1501 1500 1496 1495 1494 1495 1496 1497 1498 1500 1502 1504 1505 1506 1507 1508 1508 1509 1510 1510 1511 1511 1512 1513 1513 1514 1514 1515 1515 1515 1515 1515 1515 1515 1515 1515 1516 1516 1516 1516 1517 1517 1518
1497 1500 1500 1500 1497 1498 1502 1505 1499 1495 1494 1494 1495 1496 1497 1498 1500 1502 1504 1505 1506 1507 1508 1509 1510 1511 1511 1512 1513 1513 1514 1515 1515 1515 1515 1516 1516 1516 1516 1516 1516 1516 1517 1516 1517 1517 1517 1517 1518
1499 1490 1492 1497 1505 1512 1507 1521 1503 1496 1494 1493 1493 1494 1495 1497 1498 1500 1502 1504 1505 1506 1508 1509 1510 1511 1512 1513 1513 1514 1514 1515 1515 1516 1516 1517 1517 1517 1517 1517 1517 1517 1517 1517 1517 1517 1517 1517 1518
1490 1487 1491 1497 1505 1514 1512 1519 1509 1498 1497 1492 1490 1491 1492 1494 1496 1498 1500 1502 1504 1506 1507 1509 1510 1511 1512 1513 1514 1514 1515 1515 1516 1516 1517 1517 1517 1517 1517 1517 1517 1516 1516 1516 1516 1517 1517 1517 1517
1484 1491 1498 1506 1513 1525 1516 1520 1514 1500 1492 1488 1487 1488 1489 1492 1494 1497 1499 1502 1504 1506 1507 1508 1510 1511 1512 1513 1514 1514 1515 1515 1516 1516 1516 1517 1517 1517 1517 1516 1516 1516 1516 1515 1515 1515 1515 1515 1515
1487 1504 1523 1525 1533 1528 1515 1516 1510 1488 1484 1483 1484 1485 1487 1489 1492 1495 1497 1500 1502 1504 1506 1508 1509 1510 1511 1512 1513 1514 1515 1515 1515 1516 1516 1516 1516 1516 1516 1516 1516 1515 1515 1514 1514 1514 1514 1514 1514
1490 1499 1521 1531 1535 1528 1516 1517 1498 1483 1481 1480 1482 1484 1486 1488 1490 1493 1495 1498 1501 1503 1505 1507 1508 1509 1511 1512 1513 1514 1514 1515 1515 1515 1516 1516 1516 1516 1516 1515 1515 1515 1514 1513 1513 1512 1512 1512 1512
1491 1497 1498 1517 1523 1528 1521 1508 1491 1481 1481 1481 1481 1483 1484 1486 1488 1491 1494 1497 1500 1502 1504 1506 1508 1509 1510 1511 1512 1513 1514 1514 1515 1515 1515 1516 1516 1516 1515 1515 1514 1514 1513 1513 1512 1511 1511 1511 1511
1482 1492 1506 1518 1530 1532 1521 1513 1504 1488 1484 1481 1481 1482 1483 1485 1487 1490 1493 1496 1499 1501 1504 1506 1507 1509 1510 1511 1512 1513 1513 1514 1514 1515 1515 1515 1515 1515 1514 1514 1514 1513 1512 1512 1511 1510 1510 1510 1509
1488 1494 1504 1515 1517 1529 1530 1515 1485 1482 1479 1479 1479 1480 1482 1484 1486 1489 1492 1495 1498 1501 1503 1505 1507 1508 1509 1511 1511 1512 1512 1513 1514 1514 1514 1514 1514 1514 1513 1513 1513 1512 1511 1510 1510 1509 1509 1508 1508
1479 1487 1498 1509 1515 1521 1523 1511 1476 1475 1474 1476 1478 1479 1481 1483 1485 1488 1491 1494 1497 1499 1502 1504 1506 1507 1508 1510 1511 1511 1511 1512 1512 1513 1513 1513 1513 1513 1513 1512 1511 1510 1510 1509 1508 1508 1507 1507 1506